LEMUR-2-JOEL

Last updated on Wed Feb 14 2018 16:19:05 GMT+0000 (Coordinated Universal Time)

1 40932U 15052C 18042.23846060 .00000856 00000-0 28685-4 0 9997 2 40932 6.0080 321.1855 0013233 52.9728 307.0799 14.77623631128426
UTC large
Height (km)
Speed (km/s)
/
Latitude / Longitude
Inclination (degrees)
Orbital Period (minutes)
Azimuth
Elevation
Range (km)
Doppler Factor

Next 0 passes for location: London (51.5072 / 0.1276)

Sorry there are no passes over London.